Regional Weather Roundup
Issued by NWS

Home | Current Version | Previous Version | Text Only | Print | Product List | Glossary Off
Versions: 1 2 3 4 5 6 7 8 9 10 11 12 13 14 15 16 17 18 19 20 21 22 23 24 25 26 27 28 29 30 31 32 33 34 35 36 37 38 39 40 41 42 43 44 45 46 47 48 49 50

000
ASUS43 KLMK 281902
RWRKY
KENTUCKY REGIONAL WEATHER ROUNDUP
NATIONAL WEATHER SERVICE LOUISVILLE KY
200 PM EST WED JAN 28 2015

NOTE "FAIR" INDICATES FEW OR NO CLOUDS BELOW 12,000 FEET
WITH NO SIGNIFICANT WEATHER AND/OR OBSTRUCTIONS TO VISIBILITY.

KYZ001>023-026-027-061>063-070>075-282000-
WESTERN AND SOUTH CENTRAL KENTUCKY

CITY           SKY/WX    TMP DP  RH WIND       PRES   REMARKS
PADUCAH        SUNNY     45  30  55 S9        30.23F
HENDERSON      SUNNY     39  21  48 SE10      30.25F WCI  32
OWENSBORO      SUNNY     40  20  45 S12       30.27F WCI  33
HOPKINSVILLE   SUNNY     44  24  43 SE7       30.25F
BOWLING GREEN  SUNNY     41  15  35 VRB5      30.29F
GLASGOW        NOT AVBL
$$

KYZ024-025-028>034-038-045-046-053-282000-
NORTH CENTRAL KENTUCKY

CITY           SKY/WX    TMP DP  RH WIND       PRES   REMARKS
LOUISVILLE/SDF PTSUNNY   39  11  31 SE12      30.30F WCI  32
LOUISVILLE/LOU SUNNY     37  14  38 VRB6      30.30F WCI  32
FORT KNOX      SUNNY     37  12  35 S7        30.27F WCI  31
$$

KYZ035>037-039>044-047>052-055>060-089>105-282000-
NORTHEAST KENTUCKY

CITY           SKY/WX    TMP DP  RH WIND       PRES   REMARKS
LEXINGTON      SUNNY     34  19  54 E9        30.31F WCI  27
COVINGTON      PTSUNNY   32  17  54 SE12      30.29F WCI  23
FRANKFORT      SUNNY     34  16  47 E10       30.30F WCI  26
$$

KYZ054-064>069-076>088-106>120-282000-
SOUTHEAST KENTUCKY

CITY           SKY/WX    TMP DP  RH WIND       PRES   REMARKS
JACKSON        SUNNY     33  17  51 VRB3      30.30F
LONDON         SUNNY     35  16  45 CALM      30.30F
SOMERSET       NOT AVBL
MIDDLESBORO    NOT AVBL
MONTICELLO     CLEAR     39  13  34 CALM      30.32F
$$



USA.gov is the U.S. government's official web portal to all federal, state and local government web resources and services.